Battle Creek, MI

6:37 AM EDT on June 20, 2018 (GMT -0400)
Kellogg

Weather History for KBTL - January, 2013

Change the Weather History Date:

Tuesday, January 1, 2013

  Actual Average Record
Temperature  
Mean Temperature 23 °F 24 °F  
Max Temperature 26 °F 32 °F 54 °F (2011)
Min Temperature 20 °F 16 °F 1 °F (2002)
Degree Days  
Heating Degree Days 42 41  
Month to date heating degree days 42 41  
Since 1 July heating degree days 2403 2641  
Cooling Degree Days 0 0  
Month to date cooling degree days 0 0  
Year to date cooling degree days 0 0  
Moisture  
Dew Point 13 °F    
Average Humidity 62    
Maximum Humidity 74    
Minimum Humidity 50    
Precipitation  
Precipitation 0.00 in 0.07 in 0.14 in (2011)
Month to date precipitation 0.00 0.07  
Year to date precipitation 0.00 0.07  
Sea Level Pressure  
Sea Level Pressure 30.11 in    
Wind  
Wind Speed 8 mph (NW)    
Max Wind Speed 17 mph    
Max Gust Speed 21 mph    
Visibility 10 miles    
Events      
T = Trace of Precipitation, MM = Missing Value Source: NWS Daily Summary

Daily Weather History Graph

Daily Weather History Graph

Search for Another Location

Airport or City:

Astronomy

Jan. 01, 2013 Rise Set
Actual Time 8:10 AM EST 5:19 PM EST
Civil Twilight 7:38 AM EST 5:51 PM EST
Nautical Twilight 7:03 AM EST 6:26 PM EST
Astronomical Twilight 6:29 AM EST 7:00 PM EST
Moon 9:55 PM EST (1/1) 10:16 AM EST (1/1)
Length of Visible Light 10h 13m
Length of Day
9h 09m
Waning Gibbous, 83% of the Moon is Illuminated
Jan 1
Waning Gibbous
Jan 4
Last Quarter
Jan 11
New
Jan 18
First Quarter
Jan 26
Full

Hourly Weather History & Observations

Time (EST) Temp. Windchill Dew Point Humidity Pressure Visibility Wind Dir Wind Speed Gust Speed Precip Events Conditions
12:53 AM 26.1 °F 16.8 °F 17.1 °F 69% 30.07 in 10.0 mi NW 9.2 mph - N/A   Overcast
1:08 AM 26.6 °F 19.1 °F 17.6 °F 69% 30.04 in 10.0 mi NNW 6.9 mph - N/A   Overcast
1:21 AM 24.8 °F 17.9 °F 15.8 °F 69% 30.03 in 10.0 mi NNW 5.8 mph - N/A   Overcast
1:53 AM 24.8 °F 17.9 °F 15.8 °F 69% 30.03 in 10.0 mi NW 5.8 mph - N/A   Overcast
2:53 AM 25.0 °F 20.7 °F 16.0 °F 69% 30.08 in 10.0 mi NW 3.5 mph - N/A   Overcast
3:53 AM 24.1 °F 17.0 °F 16.0 °F 71% 30.09 in 10.0 mi NNW 5.8 mph - N/A   Overcast
4:53 AM 24.1 °F 18.2 °F 15.1 °F 69% 30.09 in 10.0 mi North 4.6 mph - N/A   Overcast
5:53 AM 24.1 °F 18.2 °F 12.9 °F 62% 30.09 in 10.0 mi North 4.6 mph - N/A   Overcast
6:53 AM 23.0 °F 15.8 °F 12.0 °F 63% 30.12 in 10.0 mi NNW 5.8 mph - N/A   Overcast
7:53 AM 21.9 °F 12.5 °F 12.9 °F 68% 30.14 in 10.0 mi North 8.1 mph - N/A   Overcast
8:53 AM 21.0 °F 9.3 °F 14.0 °F 74% 30.17 in 10.0 mi North 11.5 mph - N/A   Overcast
9:53 AM 19.9 °F 12.1 °F 9.0 °F 62% 30.19 in 10.0 mi NNE 5.8 mph - N/A   Overcast
10:53 AM 21.0 °F 9.9 °F 9.0 °F 60% 30.17 in 10.0 mi NNE 10.4 mph - N/A   Overcast
11:53 AM 23.0 °F 11.1 °F 8.1 °F 53% 30.15 in 10.0 mi NNE 12.7 mph - N/A   Clear
12:53 PM 24.1 °F 19.7 °F 8.1 °F 51% 30.14 in 10.0 mi NW 3.5 mph - N/A   Scattered Clouds
1:53 PM 25.0 °F 16.3 °F 10.0 °F 53% 30.12 in 10.0 mi WNW 8.1 mph - N/A   Overcast
2:53 PM 25.0 °F 14.8 °F 10.9 °F 55% 30.13 in 10.0 mi WNW 10.4 mph - N/A   Overcast
3:53 PM 24.1 °F 14.4 °F 12.0 °F 60% 30.13 in 10.0 mi NW 9.2 mph - N/A   Overcast
4:53 PM 24.1 °F 14.4 °F 12.9 °F 62% 30.12 in 10.0 mi WNW 9.2 mph - N/A   Overcast
5:53 PM 23.0 °F 13.9 °F 14.0 °F 68% 30.12 in 10.0 mi WNW 8.1 mph - N/A   Overcast
6:21 PM 23.0 °F 15.8 °F 15.8 °F 74% 30.08 in 10.0 mi WNW 5.8 mph - N/A   Overcast
6:53 PM 23.0 °F 13.1 °F 16.0 °F 74% 30.13 in 10.0 mi WNW 9.2 mph - N/A   Overcast
7:53 PM 21.9 °F 9.8 °F 12.9 °F 68% 30.13 in 10.0 mi WNW 12.7 mph - N/A   Overcast
8:53 PM 21.0 °F 12.4 °F 12.0 °F 68% 30.14 in 10.0 mi WNW 6.9 mph - N/A   Overcast
9:53 PM 21.0 °F 10.6 °F 12.0 °F 68% 30.14 in 10.0 mi West 9.2 mph - N/A   Overcast
10:53 PM 21.0 °F 12.4 °F 12.0 °F 68% 30.13 in 10.0 mi West 6.9 mph - N/A   Overcast
11:53 PM 21.0 °F 9.9 °F 12.0 °F 68% 30.13 in 10.0 mi West 10.4 mph - N/A   Overcast